Ivanovka

Kyrgyzstan     42˚53′07″N   75˚05′00″E
temp.,
°C
wind,
m/s
gust,
m/s
humid.,
%
clouds,
%
prec.,
mm/h
press.,
hPa
HPBL,
m
28 november, sat
sat2800:00+3˚ssw0169100 0.0 102222
03:00+3˚nnw1167100 0.0 102222
06:00−1˚wnw3580100 0.0 102473
09:00−1˚wnw2285100 0.0 102630
12:00wsw61098100 5.4 1034481
15:00−1˚wnw1296100 2.3 1037222
18:00−2˚wnw1298100 4.1 104294
21:00−3˚ene229683 1.0 104377
29 november, sun
sun2900:00−5˚ese228790 1.1 104321
03:00−5˚se119791 0.7 104427
06:00−6˚ese229695 1.1 104536
09:00−7˚e348473 0.0 104545
12:00−4˚e127641 0.0 1043177
15:00−4˚nw22880 0.0 1042122
18:00−9˚ne11860 0.0 104321
21:00−9˚e22780 0.0 104321
30 november, mon
mon3000:00−11˚ne11710 0.0 104321
03:00−12˚ene11660 0.0 104221
06:00−11˚ene11570 0.0 104221
09:00−11˚ene11470 0.0 104221
12:00−5˚nnw11640 0.0 103960
15:00−6˚wnw11780 0.0 103735
18:00−9˚e22650 0.0 103821
21:00−9˚ene11550 0.0 103821
1 december, tue
tue100:00−10˚ne114912 0.0 103621
03:00−10˚ene0148100 0.0 103521
06:00−9˚e114792 0.0 103321
09:00−8˚ne1147100 0.0 103221
12:00−3˚wnw2272100 0.0 103050
15:00−5˚wnw229172 0.0 102969
18:00−8˚e228786 0.0 103121
21:00−7˚ne1173100 0.0 103221
2 december, wed
wed200:00−5˚nne115789 0.0 103321
03:00−6˚sse015175 0.0 103321
06:00−4˚sse005287 0.0 103321
09:00−2˚ese2253100 0.0 103321
12:00+2˚nw1171100 0.0 103122
15:00+2˚ese016775 0.0 102922
18:00−1˚ene125979 0.0 103022
21:00−1˚e1161100 0.0 102922